Fort Benning, AL

9:43 PM CST on February 21, 2018 (GMT -0600)
Lawson Army Air Field

Weather History for KLSF - December, 2011

Change the Weather History Date:

Monday, December 12, 2011

  Actual Average Record
Temperature  
Mean Temperature 45 °F -  
Max Temperature 48 °F 58 °F 77 °F (1996)
Min Temperature 42 °F 35 °F 23 °F (2014)
Degree Days  
Heating Degree Days 20    
Moisture  
Dew Point 40 °F    
Average Humidity 85    
Maximum Humidity 93    
Minimum Humidity 58    
Precipitation  
Precipitation 0.55 in - - ()
Sea Level Pressure  
Sea Level Pressure 30.40 in    
Wind  
Wind Speed 5 mph (NE)    
Max Wind Speed 8 mph    
Max Gust Speed -    
Visibility 9 miles    
Events Rain    
Averages and records for this station are not official NWS values.
T = Trace of Precipitation, MM = Missing Value Source: NWS Daily Summary

Daily Weather History Graph

Daily Weather History Graph

Search for Another Location

Airport or City:

Trip Planner

Search our weather history database for the weather conditions in past years. The results will help you decide how hot, cold, wet, or windy it might be!

Date:

Astronomy

Dec. 12, 2011 Rise Set
Actual Time 7:31 AM EST 5:35 PM EST
Civil Twilight 7:04 AM EST 6:02 PM EST
Nautical Twilight 6:34 AM EST 6:33 PM EST
Astronomical Twilight 6:04 AM EST 7:03 PM EST
Moon 7:42 PM EST (12/12) 9:04 AM EST (12/12)
Length of Visible Light 10h 57m
Length of Day
10h 03m
Waning Gibbous, 96% of the Moon is Illuminated
Dec 12
Waning Gibbous
Dec 17
Last Quarter
Dec 24
New
Jan 1
First Quarter
Jan 9
Full

Hourly Weather History & Observations

Time (EST) Temp. Windchill Dew Point Humidity Pressure Visibility Wind Dir Wind Speed Gust Speed Precip Events Conditions
12:18 AM 48.2 °F - 33.8 °F 58% 30.40 in 10.0 mi Variable 6.9 mph - N/A   Overcast
12:28 AM 48.2 °F - 33.8 °F 58% 30.40 in 10.0 mi Variable 4.6 mph - N/A   Overcast
12:42 AM 48.2 °F - 33.8 °F 58% 30.40 in 10.0 mi Variable 4.6 mph - N/A Rain Light Rain
12:55 AM 47.1 °F - 36.9 °F 68% 30.40 in 9.0 mi NE 5.8 mph - 0.01 in Rain Light Rain
1:10 AM 46.4 °F 43.5 °F 37.4 °F 71% 30.39 in 10.0 mi East 5.8 mph - N/A   Overcast
1:15 AM 46.4 °F 45.2 °F 37.4 °F 71% 30.39 in 10.0 mi ENE 3.5 mph - N/A Rain Light Rain
1:41 AM 44.6 °F 43.1 °F 39.2 °F 81% 30.38 in 10.0 mi NE 3.5 mph - N/A   Overcast
1:55 AM 44.8 °F 43.3 °F 39.4 °F 81% 30.38 in 10.0 mi East 3.5 mph - 0.01 in   Overcast
1:56 AM 44.6 °F 43.1 °F 39.2 °F 81% 30.38 in 10.0 mi ENE 3.5 mph - N/A Rain Light Rain
2:20 AM 44.6 °F - 39.2 °F 81% 30.38 in 10.0 mi Calm Calm - N/A   Overcast
2:38 AM 44.6 °F 42.2 °F 39.2 °F 81% 30.37 in 10.0 mi ENE 4.6 mph - N/A Rain Light Rain
2:44 AM 44.6 °F 43.1 °F 39.2 °F 81% 30.37 in 10.0 mi Variable 3.5 mph - N/A Rain Light Rain
2:55 AM 44.1 °F 41.5 °F 39.9 °F 85% 30.37 in 8.0 mi NNE 4.6 mph - 0.04 in Rain Rain
2:57 AM 44.6 °F 43.1 °F 39.2 °F 81% 30.37 in 8.0 mi NNE 3.5 mph - N/A Rain Rain
3:04 AM 44.6 °F - 39.2 °F 81% 30.37 in 8.0 mi Calm Calm - N/A Rain Light Rain
3:31 AM 42.8 °F 41.1 °F 39.2 °F 87% 30.37 in 10.0 mi Variable 3.5 mph - N/A Rain Light Rain
3:52 AM 42.8 °F 41.1 °F 39.2 °F 87% 30.37 in 7.0 mi NNE 3.5 mph - N/A Rain Rain
3:55 AM 43.5 °F 40.9 °F 39.7 °F 87% 30.37 in 6.0 mi NNE 4.6 mph - 0.04 in Rain Rain
4:04 AM 42.8 °F 39.3 °F 41.0 °F 93% 30.36 in 2.5 mi NE 5.8 mph - N/A Rain Heavy Rain
4:09 AM 42.8 °F 38.6 °F 41.0 °F 93% 30.36 in 1.8 mi NNE 6.9 mph - N/A Rain Heavy Rain
4:17 AM 42.8 °F 41.1 °F 41.0 °F 93% 30.36 in 2.0 mi Variable 3.5 mph - N/A Rain Heavy Rain
4:18 AM 42.8 °F 40.1 °F 41.0 °F 93% 30.36 in 2.0 mi North 4.6 mph - N/A Rain Heavy Rain
4:21 AM 42.8 °F 40.1 °F 41.0 °F 93% 30.37 in 3.0 mi Variable 4.6 mph - N/A Rain Heavy Rain
4:24 AM 42.8 °F 40.1 °F 41.0 °F 93% 30.37 in 4.0 mi NNE 4.6 mph - N/A Rain Heavy Rain
4:26 AM 42.8 °F 39.3 °F 41.0 °F 93% 30.37 in 4.0 mi NE 5.8 mph - N/A Rain Light Rain
4:39 AM 42.8 °F 40.1 °F 41.0 °F 93% 30.37 in 10.0 mi Variable 4.6 mph - N/A   Overcast
4:43 AM 42.8 °F 40.1 °F 41.0 °F 93% 30.37 in 10.0 mi NNE 4.6 mph - N/A   Light Drizzle
4:55 AM 42.8 °F 41.1 °F 40.6 °F 92% 30.37 in 10.0 mi NE 3.5 mph - 0.36 in Rain Light Rain
5:03 AM 42.8 °F 41.1 °F 41.0 °F 93% 30.37 in 10.0 mi Variable 3.5 mph - N/A   Overcast
5:55 AM 42.8 °F 39.3 °F 40.1 °F 90% 30.38 in 10.0 mi NE 5.8 mph - 0.00 in   Overcast
6:19 AM 42.8 °F 40.1 °F 39.2 °F 87% 30.39 in 10.0 mi Variable 4.6 mph - N/A Rain Light Rain
6:39 AM 42.8 °F 40.1 °F 39.2 °F 87% 30.40 in 6.0 mi NE 4.6 mph - N/A Rain Heavy Rain
6:50 AM 42.8 °F 39.3 °F 39.2 °F 87% 30.40 in 5.0 mi Variable 5.8 mph - N/A Rain Light Rain
6:55 AM 42.3 °F 40.5 °F 39.7 °F 91% 30.40 in 6.0 mi NNE 3.5 mph - 0.09 in Rain Rain
6:59 AM 42.8 °F 40.1 °F 39.2 °F 87% 30.40 in 7.0 mi NNE 4.6 mph - N/A Rain Light Rain
7:15 AM 42.8 °F 41.1 °F 39.2 °F 87% 30.41 in 10.0 mi NE 3.5 mph - N/A   Overcast
7:21 AM 42.8 °F 41.1 °F 39.2 °F 87% 30.41 in 10.0 mi ENE 3.5 mph - N/A   Light Drizzle
7:26 AM 42.8 °F 41.1 °F 39.2 °F 87% 30.41 in 10.0 mi ENE 3.5 mph - N/A   Overcast
7:55 AM 42.3 °F 40.5 °F 39.4 °F 90% 30.41 in 10.0 mi East 3.5 mph - 0.00 in   Overcast
8:55 AM 42.6 °F 40.9 °F 39.6 °F 89% 30.43 in 10.0 mi Variable 3.5 mph - N/A   Overcast
9:00 AM 42.8 °F 40.1 °F 39.2 °F 87% 30.43 in 10.0 mi NE 4.6 mph - N/A   Overcast
9:17 AM 42.8 °F 38.0 °F 39.2 °F 87% 30.43 in 10.0 mi NE 8.1 mph - N/A   Overcast
9:26 AM 42.8 °F 39.3 °F 39.2 °F 87% 30.43 in 10.0 mi ENE 5.8 mph - N/A   Overcast
9:55 AM 43.9 °F 40.5 °F 40.5 °F 88% 30.43 in 10.0 mi NE 5.8 mph - 0.00 in   Overcast
10:40 AM 44.6 °F 41.4 °F 41.0 °F 87% 30.44 in 10.0 mi NE 5.8 mph - N/A   Overcast
10:46 AM 44.6 °F 41.4 °F 41.0 °F 87% 30.43 in 10.0 mi Variable 5.8 mph - N/A   Overcast
10:55 AM 44.8 °F 43.3 °F 41.4 °F 88% 30.45 in 10.0 mi NE 3.5 mph - N/A   Overcast
10:57 AM 44.6 °F 40.2 °F 41.0 °F 87% 30.46 in 10.0 mi NE 8.1 mph - N/A   Overcast
11:22 AM 44.6 °F 41.4 °F 41.0 °F 87% 30.43 in 10.0 mi ENE 5.8 mph - N/A   Overcast
11:55 AM 45.9 °F 42.3 °F 42.4 °F 88% 30.44 in 10.0 mi NE 6.9 mph - N/A   Overcast
12:55 PM 46.4 °F 42.4 °F 43.0 °F 88% 30.42 in 10.0 mi NE 8.1 mph - N/A   Overcast
1:55 PM 47.1 °F - 43.3 °F 87% 30.40 in 10.0 mi NE 8.1 mph - N/A   Overcast
2:46 PM 48.2 °F - 42.8 °F 82% 30.40 in 10.0 mi NE 4.6 mph - N/A   Overcast
2:55 PM 47.8 °F - 43.5 °F 85% 30.40 in 10.0 mi NE 5.8 mph - N/A   Overcast
3:55 PM 48.4 °F - 43.7 °F 84% 30.39 in 10.0 mi NNE 5.8 mph - N/A   Overcast
4:55 PM 48.4 °F - 44.1 °F 85% 30.39 in 10.0 mi NE 4.6 mph - N/A   Overcast
5:01 PM 48.2 °F - 44.6 °F 87% 30.39 in 10.0 mi Calm Calm - N/A   Overcast
5:55 PM 48.7 °F - 44.6 °F 86% 30.41 in 10.0 mi Calm Calm - N/A   Overcast
6:55 PM 48.9 °F - 45.1 °F 87% 30.41 in 10.0 mi NE 3.5 mph - N/A   Overcast
7:55 PM 48.4 °F - 44.4 °F 86% 30.43 in 10.0 mi NE 4.6 mph - N/A   Overcast
8:32 PM 48.2 °F - 44.6 °F 87% 30.43 in 10.0 mi Calm Calm - N/A   Overcast
8:55 PM 48.7 °F - 44.1 °F 84% 30.43 in 10.0 mi Calm Calm - N/A   Overcast
9:55 PM 48.7 °F - 43.0 °F 80% 30.43 in 10.0 mi Calm Calm - N/A   Overcast
10:55 PM 48.6 °F - 42.6 °F 80% 30.45 in 10.0 mi Calm Calm - N/A   Overcast
11:55 PM 47.3 °F - 42.4 °F 83% 30.45 in 10.0 mi Calm Calm - N/A   Overcast